• In Netherlands
  • List of Countries
  • For 7 days
  • Water Temperature
  • Satellite Maps
  • Weather Map
  • Weather Widgets
  • user-avatar
    Login

    Hourly Weather Yerevan

    Today, 26 May, Saturday

    Time Temperature Precipitation Wind Pressure Humidity
    00:00 +19°C° 0.2 mm 1 mps 687 mmHg 65%
    01:00 +19°C° 0.1 mm 1 mps 687 mmHg 66%
    02:00 +18°C° 0.1 mm 1 mps 687 mmHg 66%
    03:00 +18°C° 0 mm 1 mps 686 mmHg 68%
    04:00 +19°C° 0.1 mm 1 mps 687 mmHg 66%
    05:00 +19°C° 0.1 mm 1 mps 687 mmHg 65%
    06:00 +20°C° 0.1 mm 1 mps 687 mmHg 63%
    07:00 +22°C° 0.1 mm 1 mps 688 mmHg 58%
    08:00 +23°C° 0.1 mm 2 mps 688 mmHg 53%
    09:00 +25°C° 0.1 mm 2 mps 688 mmHg 48%
    10:00 +26°C° 0.1 mm 2 mps 688 mmHg 45%
    11:00 +27°C° 0.1 mm 2 mps 688 mmHg 42%
    12:00 +28°C° 0.1 mm 2 mps 688 mmHg 39%
    13:00 +28°C° 0.4 mm 3 mps 688 mmHg 38%
    14:00 +29°C° 0.4 mm 3 mps 688 mmHg 38%
    15:00 +29°C° 0.4 mm 3 mps 688 mmHg 37%
    16:00 +28°C° 0.2 mm 3 mps 688 mmHg 40%
    17:00 +28°C° 0.2 mm 3 mps 688 mmHg 43%
    18:00 +27°C° 0.2 mm 2 mps 688 mmHg 46%
    19:00 +25°C° 0.5 mm 2 mps 688 mmHg 50%
    20:00 +24°C° 0.5 mm 2 mps 688 mmHg 53%
    21:00 +21°C° 0.5 mm 2 mps 689 mmHg 56%
    22:00 +22°C° 0.5 mm 1 mps 689 mmHg 57%
    23:00 +21°C° 0.5 mm 1 mps 689 mmHg 59%

    Tomorrow, 27 May, Sunday

    Time Temperature Precipitation Wind Pressure Humidity
    00:00 +20°C° 0.5 mm 1 mps 689 mmHg 60%
    01:00 +20°C° 0.1 mm 1 mps 690 mmHg 61%
    02:00 +19°C° 0.1 mm 1 mps 690 mmHg 62%
    03:00 +19°C° 0.1 mm 1 mps 690 mmHg 64%
    04:00 +20°C° 0 mm 1 mps 690 mmHg 63%
    05:00 +20°C° 0 mm 1 mps 691 mmHg 61%
    06:00 +21°C° 0 mm 1 mps 691 mmHg 60%
    07:00 +23°C° 0 mm 1 mps 691 mmHg 54%
    08:00 +25°C° 0 mm 1 mps 692 mmHg 48%
    09:00 +26°C° 0 mm 1 mps 692 mmHg 42%
    10:00 +27°C° 0 mm 1 mps 692 mmHg 39%
    11:00 +28°C° 0 mm 1 mps 692 mmHg 36%
    12:00 +29°C° 0 mm 2 mps 693 mmHg 33%
    13:00 +30°C° 0.1 mm 2 mps 693 mmHg 33%
    14:00 +30°C° 0.1 mm 2 mps 692 mmHg 32%
    15:00 +30°C° 0.1 mm 2 mps 692 mmHg 32%
    16:00 +29°C° 0.3 mm 2 mps 693 mmHg 36%
    17:00 +28°C° 0.3 mm 2 mps 693 mmHg 41%
    18:00 +28°C° 0.3 mm 3 mps 693 mmHg 45%
    19:00 +26°C° 0.4 mm 3 mps 693 mmHg 52%
    20:00 +24°C° 0.4 mm 3 mps 694 mmHg 59%
    21:00 +21°C° 0.4 mm 3 mps 694 mmHg 66%
    22:00 +21°C° 0.1 mm 2 mps 694 mmHg 69%
    23:00 +20°C° 0.1 mm 2 mps 694 mmHg 72%

    Day after tomorrow, 28 May, Monday

    Time Temperature Precipitation Wind Pressure Humidity
    00:00 +19°C° 0.1 mm 2 mps 694 mmHg 75%
    01:00 +19°C° 0 mm 2 mps 694 mmHg 76%
    02:00 +18°C° 0 mm 2 mps 693 mmHg 76%
    03:00 +19°C° 0 mm 1 mps 693 mmHg 77%
    04:00 +19°C° 0 mm 1 mps 693 mmHg 74%
    05:00 +20°C° 0 mm 1 mps 693 mmHg 72%
    06:00 +21°C° 0 mm 1 mps 693 mmHg 69%
    07:00 +22°C° 0 mm 1 mps 693 mmHg 62%
    08:00 +24°C° 0 mm 1 mps 693 mmHg 55%
    09:00 +26°C° 0 mm 1 mps 693 mmHg 48%
    10:00 +27°C° 0.1 mm 1 mps 692 mmHg 45%
    11:00 +28°C° 0.1 mm 1 mps 692 mmHg 42%
    12:00 +29°C° 0.1 mm 2 mps 691 mmHg 39%
    13:00 +29°C° 0.1 mm 2 mps 691 mmHg 38%
    14:00 +30°C° 0.1 mm 2 mps 691 mmHg 37%
    15:00 +30°C° 0.1 mm 2 mps 691 mmHg 35%
    16:00 +29°C° 0.1 mm 2 mps 690 mmHg 38%
    17:00 +29°C° 0.1 mm 1 mps 690 mmHg 40%
    18:00 +28°C° 0.1 mm 1 mps 690 mmHg 42%
    19:00 +27°C° 0.1 mm 1 mps 690 mmHg 47%
    20:00 +25°C° 0.1 mm 1 mps 690 mmHg 51%
    21:00 +23°C° 0.1 mm 1 mps 691 mmHg 55%
    22:00 +22°C° 0 mm 1 mps 690 mmHg 58%
    23:00 +22°C° 0 mm 1 mps 690 mmHg 60%

    29 May, Tuesday

    Time Temperature Precipitation Wind Pressure Humidity
    00:00 +20°C° 0 mm 2 mps 690 mmHg 63%
    01:00 +20°C° 0 mm 2 mps 690 mmHg 65%
    02:00 +19°C° 0 mm 2 mps 690 mmHg 66%
    03:00 +20°C° 0 mm 1 mps 690 mmHg 68%
    04:00 +20°C° 0 mm 1 mps 690 mmHg 67%
    05:00 +21°C° 0 mm 1 mps 690 mmHg 65%
    06:00 +22°C° 0 mm 1 mps 690 mmHg 64%
    07:00 +23°C° 0 mm 1 mps 690 mmHg 57%
    08:00 +25°C° 0 mm 2 mps 690 mmHg 51%
    09:00 +26°C° 0 mm 2 mps 690 mmHg 44%
    10:00 +27°C° 0.1 mm 2 mps 690 mmHg 43%
    11:00 +28°C° 0.1 mm 3 mps 690 mmHg 42%
    12:00 +29°C° 0.1 mm 3 mps 690 mmHg 41%
    13:00 +29°C° 0.5 mm 3 mps 690 mmHg 43%
    14:00 +28°C° 0.5 mm 4 mps 690 mmHg 46%
    15:00 +28°C° 0.5 mm 5 mps 690 mmHg 48%
    16:00 +27°C° 1.1 mm 3 mps 689 mmHg 56%
    17:00 +25°C° 1.1 mm 2 mps 689 mmHg 63%
    18:00 +23°C° 1.1 mm 1 mps 689 mmHg 71%
    19:00 +23°C° 0.3 mm 1 mps 689 mmHg 72%
    20:00 +22°C° 0.3 mm 1 mps 690 mmHg 74%
    21:00 +21°C° 0.3 mm 1 mps 690 mmHg 76%
    22:00 +20°C° 0.4 mm 2 mps 690 mmHg 77%
    23:00 +20°C° 0.4 mm 2 mps 690 mmHg 78%

    30 May, Wednesday

    Time Temperature Precipitation Wind Pressure Humidity
    00:00 +19°C° 0.4 mm 2 mps 690 mmHg 79%
    01:00 +19°C° 0.5 mm 2 mps 690 mmHg 80%
    02:00 +18°C° 0.5 mm 2 mps 690 mmHg 80%
    03:00 +19°C° 0.5 mm 1 mps 690 mmHg 81%
    04:00 +20°C° 0.2 mm 1 mps 690 mmHg 79%
    05:00 +19°C° 0.2 mm 2 mps 690 mmHg 77%
    06:00 +19°C° 0.2 mm 2 mps 690 mmHg 75%
    07:00 +21°C° 0 mm 2 mps 690 mmHg 68%
    08:00 +24°C° 0 mm 3 mps 690 mmHg 61%
    09:00 +25°C° 0 mm 3 mps 690 mmHg 54%
    10:00 +26°C° 0.2 mm 3 mps 690 mmHg 50%
    11:00 +28°C° 0.2 mm 3 mps 690 mmHg 46%
    12:00 +29°C° 0.2 mm 3 mps 690 mmHg 41%
    13:00 +29°C° 0.2 mm 3 mps 689 mmHg 40%
    14:00 +30°C° 0.2 mm 3 mps 689 mmHg 39%
    15:00 +30°C° 0.2 mm 3 mps 689 mmHg 38%
    16:00 +29°C° 0.4 mm 3 mps 688 mmHg 42%
    17:00 +29°C° 0.4 mm 2 mps 688 mmHg 45%
    18:00 +28°C° 0.4 mm 2 mps 688 mmHg 48%
    19:00 +26°C° 0.4 mm 2 mps 688 mmHg 53%
    20:00 +25°C° 0.4 mm 2 mps 689 mmHg 59%
    21:00 +23°C° 0.4 mm 2 mps 689 mmHg 65%
    22:00 +21°C° 0.5 mm 2 mps 689 mmHg 66%
    23:00 +21°C° 0.5 mm 2 mps 689 mmHg 68%

    31 May, Thursday

    Time Temperature Precipitation Wind Pressure Humidity
    00:00 +21°C° 0.5 mm 2 mps 688 mmHg 70%
    01:00 +21°C° 0.3 mm 1 mps 688 mmHg 70%
    02:00 +21°C° 0.3 mm 1 mps 688 mmHg 71%
    03:00 +21°C° 0.3 mm 1 mps 687 mmHg 72%
    04:00 +21°C° 0.4 mm 1 mps 687 mmHg 71%
    05:00 +22°C° 0.4 mm 1 mps 687 mmHg 69%
    06:00 +22°C° 0.4 mm 1 mps 687 mmHg 68%
    07:00 +24°C° 0.2 mm 2 mps 687 mmHg 62%
    08:00 +26°C° 0.2 mm 3 mps 687 mmHg 55%
    09:00 +27°C° 0.2 mm 4 mps 687 mmHg 49%
    10:00 +29°C° 0.2 mm 4 mps 687 mmHg 45%
    11:00 +30°C° 0.2 mm 4 mps 687 mmHg 42%
    12:00 +32°C° 0.2 mm 4 mps 686 mmHg 39%
    13:00 +32°C° 0.5 mm 4 mps 686 mmHg 38%
    14:00 +32°C° 0.5 mm 4 mps 686 mmHg 37%
    15:00 +32°C° 0.5 mm 4 mps 686 mmHg 36%
    16:00 +32°C° 0.3 mm 4 mps 686 mmHg 38%
    17:00 +30°C° 0.3 mm 4 mps 686 mmHg 41%
    18:00 +29°C° 0.3 mm 4 mps 686 mmHg 44%
    19:00 +27°C° 0.6 mm 3 mps 686 mmHg 48%
    20:00 +25°C° 0.6 mm 3 mps 687 mmHg 52%
    21:00 +23°C° 0.6 mm 2 mps 687 mmHg 56%
    22:00 +21°C° 0.1 mm 2 mps 687 mmHg 57%
    23:00 +21°C° 0.1 mm 2 mps 687 mmHg 59%
    Show more